Johnstown, PA

5:12 AM EDT on May 26, 2016 (GMT -0400)
Johnstown-Cambria County

Weather History for KJST - August, 2012

Change the Weather History Date:

Friday, August 10, 2012

  Actual Average Record
Temperature  
Mean Temperature 68 °F 69 °F  
Max Temperature 77 °F 77 °F 100 °F (1911)
Min Temperature 60 °F 60 °F 47 °F (1927)
Degree Days  
Heating Degree Days 0 1  
Month to date heating degree days 6  
Since 1 June heating degree days 93  
Since 1 July heating degree days 19  
Cooling Degree Days 2 4  
Month to date cooling degree days 47  
Year to date cooling degree days 290  
Since 1 June cooling degree days 272  
Growing Degree Days 18 (Base 50)    
Moisture  
Dew Point 61 °F    
Average Humidity 86    
Maximum Humidity 100    
Minimum Humidity 55    
Precipitation  
Precipitation 0.92 in 0.12 in 1.25 in (1933)
Month to date precipitation 1.24  
Year to date precipitation 21.73  
Sea Level Pressure  
Sea Level Pressure 29.83 in    
Wind  
Wind Speed 8 mph (SW)    
Max Wind Speed 21 mph    
Max Gust Speed 30 mph    
Visibility 6 miles    
Events Fog , Rain , Thunderstorm    
T = Trace of Precipitation, MM = Missing Value Source: NWS Daily Summary

Daily Weather History Graph

Daily Weather History Graph

Search for Another Location

Airport or City:

Trip Planner

Search our weather history database for the weather conditions in past years. The results will help you decide how hot, cold, wet, or windy it might be!

Date:

Astronomy

Aug. 10, 2012 Rise Set
Actual Time 6:21 AM EDT 8:18 PM EDT
Civil Twilight 5:52 AM EDT 8:48 PM EDT
Nautical Twilight 5:16 AM EDT 9:23 PM EDT
Astronomical Twilight 4:37 AM EDT 10:02 PM EDT
Moon 12:09 AM EDT (8/10) 2:57 PM EDT (8/10)
Length of Visible Light 14h 55m
Length of Day
13h 56m
Last Quarter, 42% of the Moon is Illuminated
Aug 10
Last Quarter
Aug 17
New
Aug 24
First Quarter
Aug 31
Full
Sep 8
Last Quarter

Hourly Weather History & Observations

Time (EDT) Temp. Dew Point Humidity Pressure Visibility Wind Dir Wind Speed Gust Speed Precip Events Conditions
12:23 AM 66.2 °F 60.8 °F 83% 29.89 in 10.0 mi North 4.6 mph - N/A Thunderstorm Scattered Clouds
12:52 AM 64.4 °F 62.6 °F 94% 29.92 in 2.5 mi West 13.8 mph 24.2 mph 0.11 in Rain , Thunderstorm Heavy Rain
12:54 AM 64.9 °F 62.1 °F 90% 29.87 in 1.5 mi WNW 18.4 mph 24.2 mph 0.17 in Rain , Thunderstorm Heavy Thunderstorms and Rain
1:03 AM 62.6 °F 62.6 °F 100% 29.94 in 0.8 mi WNW 20.7 mph 29.9 mph 0.26 in Rain , Thunderstorm Heavy Thunderstorms and Rain
1:08 AM 62.6 °F 60.8 °F 94% 29.94 in 0.5 mi West 5.8 mph 29.9 mph 0.38 in Fog , Rain , Thunderstorm Heavy Thunderstorms and Rain
1:15 AM 62.6 °F 60.8 °F 94% 29.93 in 1.8 mi WNW 13.8 mph 18.4 mph 0.41 in Rain , Thunderstorm Heavy Thunderstorms and Rain
1:21 AM 62.6 °F 60.8 °F 94% 29.93 in 2.5 mi NW 10.4 mph 20.7 mph 0.44 in Rain , Thunderstorm Heavy Thunderstorms and Rain
1:28 AM 62.6 °F 60.8 °F 94% 29.93 in 3.0 mi NW 10.4 mph - 0.45 in Rain , Thunderstorm Rain
1:40 AM 62.6 °F 60.8 °F 94% 29.93 in 4.0 mi NNW 5.8 mph - 0.48 in Rain , Thunderstorm Rain
1:54 AM 61.0 °F 60.1 °F 97% 29.86 in 6.0 mi North 5.8 mph - 0.49 in Rain Light Rain
2:40 AM 60.8 °F 60.8 °F 100% 29.89 in 2.0 mi Calm Calm - 0.04 in Rain Rain
2:49 AM 60.8 °F 60.8 °F 100% 29.89 in 2.0 mi East 3.5 mph - 0.07 in Rain Heavy Rain
2:54 AM 61.0 °F 60.1 °F 97% 29.85 in 2.0 mi East 3.5 mph - 0.09 in Rain Rain
2:58 AM 60.8 °F 60.8 °F 100% 29.88 in 1.8 mi East 4.6 mph - 0.00 in Rain Rain
3:08 AM 60.8 °F 60.8 °F 100% 29.89 in 0.8 mi East 4.6 mph - 0.02 in Rain Rain
3:19 AM 60.8 °F 60.8 °F 100% 29.88 in 1.2 mi ESE 5.8 mph - 0.04 in Rain Rain
3:25 AM 60.8 °F 60.8 °F 100% 29.88 in 2.0 mi East 4.6 mph - 0.05 in Rain Rain
3:33 AM 60.8 °F 60.8 °F 100% 29.87 in 1.8 mi East 5.8 mph - 0.06 in Rain Rain
3:54 AM 61.0 °F 60.1 °F 97% 29.84 in 1.0 mi East 3.5 mph - 0.08 in Rain Light Rain
4:07 AM 60.8 °F 60.8 °F 100% 29.87 in 1.2 mi Variable 3.5 mph - 0.02 in Rain Light Rain
4:20 AM 60.8 °F 60.8 °F 100% 29.87 in 3.0 mi ESE 3.5 mph - 0.02 in Rain Light Rain
4:54 AM 62.1 °F 61.0 °F 96% 29.83 in 6.0 mi SE 4.6 mph - 0.05 in Rain Light Rain
5:54 AM 62.1 °F 60.1 °F 93% 29.81 in 10.0 mi SSE 4.6 mph - 0.03 in Rain Light Rain
6:54 AM 62.1 °F 60.1 °F 93% 29.80 in 10.0 mi SSW 5.8 mph - 0.00 in   Overcast
7:54 AM 62.1 °F 60.1 °F 93% 29.79 in 10.0 mi SSE 9.2 mph - 0.00 in   Overcast
8:38 AM 62.6 °F 60.8 °F 94% 29.83 in 10.0 mi WSW 4.6 mph - N/A   Overcast
8:54 AM 63.0 °F 61.0 °F 93% 29.79 in 9.0 mi South 6.9 mph - N/A   Overcast
9:54 AM 64.0 °F 62.1 °F 93% 29.78 in 5.0 mi SSW 5.8 mph - 0.00 in Rain Light Rain
10:54 AM 66.0 °F 64.0 °F 93% 29.77 in 7.0 mi SSE 4.6 mph - 0.01 in Rain Light Rain
11:31 AM 69.8 °F 64.4 °F 83% 29.80 in 10.0 mi South 8.1 mph - 0.00 in   Overcast
11:54 AM 69.1 °F 64.0 °F 84% 29.75 in 10.0 mi South 6.9 mph - 0.00 in   Mostly Cloudy
12:54 PM 70.0 °F 63.0 °F 78% 29.75 in 10.0 mi WSW 6.9 mph - N/A   Overcast
1:08 PM 71.6 °F 64.4 °F 78% 29.79 in 10.0 mi WSW 8.1 mph - N/A   Mostly Cloudy
1:54 PM 75.0 °F 64.0 °F 69% 29.74 in 10.0 mi SW 10.4 mph - N/A   Mostly Cloudy
2:37 PM 71.6 °F 62.6 °F 73% 29.77 in 10.0 mi West 10.4 mph 18.4 mph N/A   Overcast
2:51 PM 73.4 °F 62.6 °F 69% 29.78 in 10.0 mi WSW 12.7 mph - 0.00 in   Mostly Cloudy
2:54 PM 73.9 °F 63.0 °F 68% 29.74 in 10.0 mi SW 12.7 mph - 0.00 in   Mostly Cloudy
3:54 PM 75.9 °F 62.1 °F 62% 29.73 in 10.0 mi WSW 12.7 mph - N/A   Mostly Cloudy
4:54 PM 75.9 °F 61.0 °F 60% 29.73 in 10.0 mi SW 13.8 mph - N/A   Partly Cloudy
5:54 PM 75.0 °F 57.9 °F 55% 29.73 in 10.0 mi WSW 16.1 mph 24.2 mph N/A   Partly Cloudy
6:54 PM 73.9 °F 59.0 °F 59% 29.75 in 10.0 mi SW 8.1 mph - N/A   Partly Cloudy
7:54 PM 71.1 °F 57.9 °F 63% 29.77 in 10.0 mi WSW 9.2 mph - N/A   Overcast
8:54 PM 69.1 °F 59.0 °F 70% 29.79 in 10.0 mi WSW 6.9 mph - N/A   Overcast
9:54 PM 68.0 °F 57.0 °F 68% 29.81 in 10.0 mi SW 6.9 mph - 0.00 in   Overcast
10:54 PM 66.0 °F 57.0 °F 73% 29.81 in 10.0 mi SW 8.1 mph - N/A   Overcast
11:54 PM 63.0 °F 57.0 °F 81% 29.81 in 10.0 mi SW 5.8 mph - N/A   Clear